{"data":{"norad_id":68329,"intl_designator":"2026-059J","name":"STARLINK-37204","alt_names":[],"object_type":"PAYLOAD","status":"ACTIVE","operator":null,"country":"US","launch_date":"2026-03-22","launch_site_code":"AFETR","launch_vehicle":null,"mission":null,"orbit_class":"UNKNOWN","rcs_meters":null,"size_class":null,"mass_kg":null,"dimensions":null,"purposes":["comms"],"wikipedia_slug":null,"has_3d_model":false,"image_url":null,"decayed_at":null,"tle_current":{"epoch":"2026-09-19T04:53:02.228064Z","epoch_age_seconds":160433,"freshness":"FRESH","line1":"1 68329U 26059J   26262.20349801  .00018340  00000+0  55229-3 0  9996","line2":"2 68329  53.1573 161.5820 0000951 100.1771 259.9339 15.34417763 27919","mean_motion":15.34417763,"eccentricity":9.51e-5,"inclination_deg":53.1573,"raan_deg":161.582,"arg_perigee_deg":100.1771,"mean_anomaly_deg":259.9339,"bstar":0.00055229,"rev_number":2791,"period_min":93.846671664215,"perigee_km":461.99988645099,"apogee_km":463.30100422309,"semimajor_km":6840.787445337,"source":"CELESTRAK","updated_at":"2026-09-20T09:00:43.884924Z"}}}